Location: Unspecified
(0.0000°N, 0.0000°E)
Time: 04:40:38
(UTC+00:00)

Hubble Space Telescope - Pass Details

Date: 24 May 2019
Orbit: 536 x 540 km, 28.5° (Epoch: 21 May)

Event Time Altitude Azimuth Distance (km) Brightness Sun altitude
Rises 19:56:54 0° 315° (NW) 2,664 5.4 -27.9°
Reaches altitude 10° 19:59:19 10° 325° (NW) 1,774 4.1 -28.4°
Enters shadow 20:01:10 22° 343° (NNW) 1,187 2.8 -28.8°
